Battle Creek, MI

10:06 PM EDT on October 13, 2019 (GMT -0400)
Kellogg

Weather History for KBTL - July, 2019

Change the Weather History Date:

Wednesday, July 17, 2019

  Actual Average Record
Temperature  
Mean Temperature 82 °F 71 °F  
Max Temperature 90 °F 83 °F 99 °F (2012)
Min Temperature 73 °F 59 °F 49 °F (2014)
Degree Days  
Heating Degree Days 0 0  
Month to date heating degree days 0 6  
Since 1 June heating degree days 46 63  
Since 1 July heating degree days 0 6  
Cooling Degree Days 17 6  
Month to date cooling degree days 200 114  
Year to date cooling degree days 341 278  
Since 1 June cooling degree days 325 240  
Growing Degree Days 31 (Base 50)    
Moisture  
Dew Point 72 °F    
Average Humidity 76    
Maximum Humidity 100    
Minimum Humidity 52    
Precipitation  
Precipitation 0.00 in 0.11 in 0.71 in (2015)
Month to date precipitation 1.34 1.82  
Year to date precipitation 19.63 16.53  
Sea Level Pressure  
Sea Level Pressure 29.90 in    
Wind  
Wind Speed 5 mph (NNE)    
Max Wind Speed 10 mph    
Max Gust Speed 20 mph    
Visibility 9 miles    
Events      
T = Trace of Precipitation, MM = Missing Value Source: NWS Daily Summary

Daily Weather History Graph

Daily Weather History Graph

Search for Another Location

Airport or City:

Astronomy

Jul. 17, 2019 Rise Set
Actual Time 6:19 AM EDT 9:14 PM EDT
Civil Twilight 5:45 AM EDT 9:47 PM EDT
Nautical Twilight 5:03 AM EDT 10:30 PM EDT
Astronomical Twilight 4:13 AM EDT 11:19 PM EDT
Moon 10:02 PM EDT (7/17) 6:51 AM EDT (7/17)
Length of Visible Light 16h 02m
Length of Day
14h 55m
Waxing Gibbous, 99% of the Moon is Illuminated
Jul 17
Waxing Gibbous
Jul 24
Last Quarter
Jul 31
New
Aug 7
First Quarter
Aug 15
Full

Hourly Weather History & Observations

Time (EDT) Temp. Heat Index Dew Point Humidity Pressure Visibility Wind Dir Wind Speed Gust Speed Precip Events Conditions
12:45 AM 73.0 °F - 72.0 °F 96% 29.90 in 10.0 mi SSE 4.6 mph - N/A   Partly Cloudy
12:53 AM 73.0 °F - 72.0 °F 96% 29.88 in 10.0 mi South 3.5 mph - N/A   Partly Cloudy
1:32 AM 73.0 °F - 72.0 °F 96% 29.90 in 10.0 mi Variable 3.5 mph - N/A   Mostly Cloudy
1:53 AM 73.0 °F - 72.0 °F 96% 29.88 in 10.0 mi SSW 3.5 mph - N/A   Mostly Cloudy
2:00 AM 73.0 °F - 72.0 °F 96% 29.90 in 10.0 mi Calm Calm - N/A   Overcast
2:53 AM 73.0 °F - 72.0 °F 96% 29.88 in 9.0 mi South 3.5 mph - N/A   Overcast
3:53 AM 73.0 °F - 72.0 °F 96% 29.88 in 10.0 mi South 3.5 mph - N/A   Overcast
4:00 AM 73.0 °F - 72.0 °F 96% 29.89 in 10.0 mi South 4.6 mph - N/A   Overcast
4:53 AM 73.0 °F - 72.0 °F 96% 29.87 in 10.0 mi Calm Calm - N/A   Overcast
5:41 AM 73.9 °F - 72.0 °F 93% 29.89 in 10.0 mi Calm Calm - N/A   Overcast
5:51 AM 73.4 °F - 71.6 °F 94% 29.89 in 10.0 mi Calm Calm - N/A   Overcast
5:53 AM 73.9 °F - 72.0 °F 93% 29.88 in 10.0 mi Calm Calm - N/A   Overcast
6:37 AM 73.9 °F - 72.0 °F 93% 29.90 in 9.0 mi NNW 3.5 mph - N/A   Overcast
6:53 AM 73.0 °F - 72.0 °F 96% 29.88 in 3.0 mi NW 3.5 mph - N/A   Overcast
7:08 AM 73.9 °F - 72.0 °F 93% 29.90 in 3.0 mi North - - N/A   Overcast
7:53 AM 73.9 °F - 73.0 °F 97% 29.89 in 3.0 mi NNW 3.5 mph - N/A   Overcast
8:02 AM 73.9 °F - 73.0 °F 97% 29.91 in 7.0 mi NNW 3.5 mph - N/A   Overcast
8:32 AM 75.0 °F - 73.0 °F 94% 29.92 in 10.0 mi NNW 3.5 mph - N/A   Overcast
8:53 AM 75.9 °F - 73.0 °F 91% 29.90 in 10.0 mi NNW 3.5 mph - N/A   Overcast
9:53 AM 80.1 °F 84.2 °F 73.0 °F 79% 29.91 in 10.0 mi North 4.6 mph - N/A   Mostly Cloudy
10:21 AM 82.0 °F 87.4 °F 73.0 °F 74% 29.93 in 10.0 mi NE 5.8 mph - N/A   Mostly Cloudy
10:53 AM 82.9 °F 88.8 °F 73.0 °F 72% 29.91 in 10.0 mi ENE 6.9 mph - N/A   Mostly Cloudy
11:53 AM 84.9 °F 90.7 °F 72.0 °F 65% 29.91 in 10.0 mi ENE 6.9 mph - N/A   Mostly Cloudy
12:00 PM 84.9 °F 91.4 °F 73.0 °F 67% 29.94 in 10.0 mi NNE 8.1 mph - N/A   Mostly Cloudy
12:53 PM 82.9 °F 88.0 °F 72.0 °F 69% 29.93 in 10.0 mi NNE 9.2 mph - N/A   Mostly Cloudy
1:53 PM 88.0 °F 94.7 °F 72.0 °F 59% 29.92 in 10.0 mi North 10.4 mph - N/A   Mostly Cloudy
2:12 PM 84.0 °F 89.0 °F 71.1 °F 65% 29.95 in 10.0 mi North 9.2 mph - N/A   Mostly Cloudy
2:53 PM 87.1 °F 92.8 °F 71.1 °F 59% 29.92 in 10.0 mi North 9.2 mph - N/A   Mostly Cloudy
3:53 PM 89.1 °F 94.1 °F 70.0 °F 53% 29.91 in 10.0 mi Variable 5.8 mph - N/A   Mostly Cloudy
4:00 PM 89.1 °F 95.0 °F 71.1 °F 55% 29.93 in 10.0 mi Variable 5.8 mph - N/A   Scattered Clouds
4:53 PM 89.1 °F 94.1 °F 70.0 °F 53% 29.90 in 10.0 mi Variable 5.8 mph - N/A   Scattered Clouds
5:53 PM 89.1 °F 93.7 °F 69.1 °F 52% 29.89 in 10.0 mi NE 8.1 mph - N/A   Scattered Clouds
6:53 PM 88.0 °F 93.8 °F 71.1 °F 57% 29.89 in 10.0 mi NNE 6.9 mph - N/A   Clear
7:53 PM 87.1 °F 91.3 °F 69.1 °F 55% 29.90 in 10.0 mi NNE 4.6 mph - N/A   Clear
8:53 PM 84.0 °F 89.0 °F 71.1 °F 65% 29.91 in 10.0 mi NNE 4.6 mph - N/A   Clear
9:53 PM 82.9 °F 87.5 °F 71.1 °F 67% 29.90 in 10.0 mi East 3.5 mph - N/A   Partly Cloudy
10:53 PM 81.0 °F 84.9 °F 71.1 °F 72% 29.91 in 10.0 mi ESE 5.8 mph - N/A   Clear
11:53 PM 80.1 °F 83.6 °F 71.1 °F 74% 29.92 in 10.0 mi SE 5.8 mph - N/A   Clear